STARLINK-2491 (48148 NORAD) Tracking and Keplerian Element Data

This shows tracking and keplerian element data for the satellite.

Feedback or suggestion? Click here.




ElementValue
Catalog48148
NameSTARLINK-2491
Epoch Orbit194
Epoch Day170.58334491
Epoch Year2021
RAAN351.4174
Inclination53.0516
Eccentricity0.0001423
Argument of Perigee101.418
Mean Anonmoly233.6798
Mean Motion15.06330126
Decay Rate0.00101588
L11 48148U 21027BJ 21170.58334491 .00101588 00000-0 67541-2 0 9993
L22 48148 53.0516 351.4174 0001423 101.4180 233.6798 15.06330126 1946

Live tracking and technical data element details for STARLINK-2491 (NORAD 48148). STARLINK-2491 can be tracked NOW for your location showing map with azimuth and elevation plus other details from your city location.

Track the satellite on the map from your city or location and see movement details for azimuth, elevation, latitude, longitude, range, height, and movement on the map or in text.







IsCatalogInMostPopularTable: catalog: 48148, numindb: 36
Update: records affected: 1



GetName: 48148 STARLINK-2491

Hit Count: updated at: Mon, 21 Jun 2021 04:50:57 GMT